FW9447 Weather Reports


time (UTC)temp
C
wind
direction
speed
KPH
gust
KPH
rain 1hr
cm
rain 24hr
cm
rain mn
cm
humidity
%
barometer
mb
20260505031603 6 347 3.2 17.7 0.00 0.84 0.00 87 1005.8
20260505030056 6 50 4.8 14.5 0.00 0.84 0.00 87 1005.5
20260505024558 6 49 6.4 19.3 0.00 0.86 0.84 86 1005.3
20260505023051 7 68 6.4 20.9 0.00 0.86 0.84 85 1005.1
20260505021558 7 35 4.8 19.3 0.00 0.86 0.84 84 1005.1
20260505020054 7 56 6.4 20.9 0.00 0.86 0.84 83 1004.8
20260505014607 7 46 6.4 17.7 0.03 0.91 0.84 82 1004.6
20260505013053 8 52 6.4 40.2 0.03 0.91 0.84 81 1004.6
20260505011604 8 131 6.4 27.4 0.03 0.91 0.84 82 1004.4
20260505010053 8 39 4.8 19.3 0.03 0.91 0.84 81 1004.4
20260505004553 8 84 4.8 16.1 0.00 0.94 0.81 81 1004.3
20260505003050 8 251 6.4 19.3 0.00 0.94 0.81 80 1004.3
20260505001554 8 259 8.0 16.1 0.00 0.94 0.81 80 1004.3
20260505000107 7 0 4.8 22.5 0.00 0.94 0.81 80 1003.8
20260504234555 7 49 6.4 16.1 0.00 0.99 0.81 79 1003.7
20260504233107 8 58 6.4 17.7 0.00 0.99 0.81 76 1003.4
20260504231552 8 38 4.8 22.5 0.00 0.99 0.81 73 1003.5
20260504230053 8 83 4.8 19.3 0.00 0.99 0.81 70 1003.1
20260504224604 9 42 4.8 17.7 0.00 1.07 0.81 69 1002.9
20260504223127 9 112 9.7 25.7 0.03 1.07 0.81 65 1002.8
20260504221554 9 49 4.8 17.7 0.03 1.07 0.81 70 1002.6
20260504220053 10 161 4.8 16.1 0.03 1.07 0.81 67 1002.6
20260504214557 10 39 3.2 19.3 0.03 1.12 0.81 66 1002.4
20260504213102 10 221 3.2 24.1 0.00 1.09 0.79 66 1002.4
20260504211555 9 352 4.8 22.5 0.00 1.09 0.79 67 1002.2
20260504210059 9 42 6.4 19.3 0.03 1.09 0.79 69 1002.1
20260504204557 9 360 6.4 16.1 0.03 1.19 0.79 68 1001.9
20260504203107 8 356 4.8 17.7 0.03 1.19 0.79 72 1001.8
20260504201556 8 11 8.0 20.9 0.03 1.19 0.79 73 1001.7
20260504194552 8 104 4.8 22.5 0.03 1.27 0.76 74 1001.3
20260504193055 8 17 8.0 30.6 0.03 1.27 0.76 74 1001.1
20260504191557 8 310 8.0 22.5 0.03 1.27 0.76 77 1000.8
20260504190049 8 16 9.7 27.4 0.03 1.27 0.76 79 1000.7
20260504184557 7 17 11.3 32.2 0.03 1.32 0.74 81 1000.6
20260504183053 7 285 9.7 32.2 0.03 1.32 0.74 82 1000.3
20260504181600 7 316 12.9 32.2 0.03 1.32 0.74 85 999.9
20260504180154 7 282 9.7 25.7 0.03 1.32 0.74 88 999.8
20260504174601 6 340 9.7 27.4 0.03 1.32 0.71 91 999.8
20260504173053 5 25 11.3 32.2 0.03 1.32 0.71 93 999.5
20260504171556 5 43 9.7 22.5 0.05 1.32 0.71 93 999.2
20260504150103 3 39 8.0 19.3 0.05 1.22 0.61 98 997.1
20260504090107 2 295 22.5 51.5 0.08 0.84 0.23 99 983.5
20260504081602 2 298 22.5 46.7 0.05 0.79 0.18 99 981.2
20260504044603 3 356 6.4 16.1 0.03 0.66 0.05 97 975.5
20260504043057 3 325 6.4 16.1 0.03 0.64 0.03 97 975.4
20260504041556 3 327 6.4 12.9 0.03 0.64 0.03 96 975.5
20260504040107 3 63 1.6 6.4 0.03 0.64 0.03 95 975.7
20260504034612 3 91 6.4 20.9 0.03 0.64 0.03 95 975.9
20260504033054 4 90 3.2 30.6 0.03 0.61 0.00 94 976.0